PRIVATE WETTERSTATION BILLIGHEIM-ALLFELD                       ZURCK
Wetterdaten: Sonntag, 02.01.2022
Datum Zeit Temp. A. Temp. A. min Temp. A. max Feuchte A. Luftdruck Regen Wind Richtung Richtung Sonnenschein ET Solar Taupunkt Windchill Windben Empfang
02.01.2022 00:00 3,8 C 3,8 C 3,8 C 92 % 1022,9 hPa 0,0 l/m 0,0 km/h (0 Bft) N 0 0 min 0,000 mm 0 W/m 2,6 C 3,8 C 0,0 km/h (0 Bft) 100 %
02.01.2022 00:10 3,8 C 3,8 C 3,8 C 92 % 1022,7 hPa 0,0 l/m 0,0 km/h (0 Bft) N 0 0 min 0,000 mm 0 W/m 2,6 C 3,8 C 0,0 km/h (0 Bft) 100 %
02.01.2022 00:20 3,8 C 3,8 C 3,8 C 92 % 1022,6 hPa 0,0 l/m 0,0 km/h (0 Bft) N 0 0 min 0,000 mm 0 W/m 2,6 C 3,8 C 0,0 km/h (0 Bft) 100 %
02.01.2022 00:30 3,8 C 3,8 C 3,8 C 92 % 1022,7 hPa 0,0 l/m 0,0 km/h (0 Bft) N 0 0 min 0,000 mm 0 W/m 2,6 C 3,8 C 0,0 km/h (0 Bft) 100 %
02.01.2022 00:40 3,6 C 3,6 C 3,8 C 92 % 1022,8 hPa 0,0 l/m 0,0 km/h (0 Bft) N 0 0 min 0,000 mm 0 W/m 2,4 C 3,6 C 0,0 km/h (0 Bft) 100 %
02.01.2022 00:50 3,6 C 3,6 C 3,6 C 92 % 1022,6 hPa 0,0 l/m 0,0 km/h (0 Bft) N 0 0 min 0,000 mm 0 W/m 2,4 C 3,6 C 0,0 km/h (0 Bft) 89 %
02.01.2022 01:00 3,6 C 3,6 C 3,6 C 92 % 1022,7 hPa 0,0 l/m 0,0 km/h (0 Bft) N 0 0 min 0,000 mm 0 W/m 2,4 C 3,6 C 0,0 km/h (0 Bft) 100 %
02.01.2022 01:10 3,7 C 3,6 C 3,7 C 92 % 1022,7 hPa 0,0 l/m 0,0 km/h (0 Bft) N 0 0 min 0,000 mm 0 W/m 2,5 C 3,7 C 0,0 km/h (0 Bft) 100 %
02.01.2022 01:20 4,3 C 3,7 C 4,3 C 92 % 1022,5 hPa 0,0 l/m 0,0 km/h (0 Bft) N 0 0 min 0,000 mm 0 W/m 3,1 C 4,3 C 0,0 km/h (0 Bft) 100 %
02.01.2022 01:30 4,8 C 4,3 C 4,8 C 92 % 1022,5 hPa 0,0 l/m 0,0 km/h (0 Bft) N 0 0 min 0,000 mm 0 W/m 3,6 C 4,8 C 0,0 km/h (0 Bft) 100 %
02.01.2022 01:40 4,5 C 4,5 C 4,8 C 92 % 1022,4 hPa 0,0 l/m 0,0 km/h (0 Bft) N 0 0 min 0,000 mm 0 W/m 3,3 C 4,5 C 0,0 km/h (0 Bft) 100 %
02.01.2022 01:50 4,3 C 4,3 C 4,4 C 92 % 1022,3 hPa 0,0 l/m 0,0 km/h (0 Bft) N 0 0 min 0,000 mm 0 W/m 3,1 C 4,3 C 0,0 km/h (0 Bft) 100 %
02.01.2022 02:00 4,0 C 4,0 C 4,3 C 92 % 1022,1 hPa 0,0 l/m 0,0 km/h (0 Bft) N 0 0 min 0,000 mm 0 W/m 2,8 C 4,0 C 0,0 km/h (0 Bft) 98 %
02.01.2022 02:10 3,8 C 3,8 C 4,0 C 92 % 1021,9 hPa 0,0 l/m 0,0 km/h (0 Bft) N 0 0 min 0,000 mm 0 W/m 2,6 C 3,8 C 0,0 km/h (0 Bft) 98 %
02.01.2022 02:20 3,7 C 3,5 C 3,7 C 92 % 1022,0 hPa 0,0 l/m 0,0 km/h (0 Bft) W 270 0 min 0,000 mm 0 W/m 2,5 C 3,7 C 1,6 km/h (1 Bft) 98 %
02.01.2022 02:30 3,6 C 3,5 C 3,7 C 92 % 1021,8 hPa 0,0 l/m 0,0 km/h (0 Bft) N 0 0 min 0,000 mm 0 W/m 2,4 C 3,6 C 0,0 km/h (0 Bft) 98 %
02.01.2022 02:40 3,3 C 3,3 C 3,5 C 92 % 1021,7 hPa 0,0 l/m 0,0 km/h (0 Bft) N 0 0 min 0,000 mm 0 W/m 2,1 C 3,3 C 0,0 km/h (0 Bft) 97 %
02.01.2022 02:50 3,2 C 3,2 C 3,3 C 92 % 1021,8 hPa 0,0 l/m 0,0 km/h (0 Bft) N 0 0 min 0,000 mm 0 W/m 2,0 C 3,2 C 0,0 km/h (0 Bft) 97 %
02.01.2022 03:00 3,2 C 3,1 C 3,2 C 92 % 1021,7 hPa 0,0 l/m 0,0 km/h (0 Bft) N 0 0 min 0,000 mm 0 W/m 2,0 C 3,2 C 0,0 km/h (0 Bft) 98 %
02.01.2022 03:10 3,0 C 3,0 C 3,2 C 92 % 1021,7 hPa 0,0 l/m 0,0 km/h (0 Bft) N 0 0 min 0,000 mm 0 W/m 1,8 C 3,0 C 0,0 km/h (0 Bft) 97 %
02.01.2022 03:20 2,7 C 2,7 C 3,0 C 92 % 1021,6 hPa 0,0 l/m 0,0 km/h (0 Bft) N 0 0 min 0,000 mm 0 W/m 1,5 C 2,7 C 0,0 km/h (0 Bft) 98 %
02.01.2022 03:30 2,7 C 2,6 C 2,7 C 92 % 1021,3 hPa 0,0 l/m 0,0 km/h (0 Bft) N 0 0 min 0,000 mm 0 W/m 1,5 C 2,7 C 0,0 km/h (0 Bft) 98 %
02.01.2022 03:40 3,8 C 2,7 C 3,8 C 92 % 1021,2 hPa 0,0 l/m 0,0 km/h (0 Bft) N 0 0 min 0,000 mm 0 W/m 2,6 C 3,8 C 0,0 km/h (0 Bft) 98 %
02.01.2022 03:50 3,4 C 3,4 C 3,8 C 92 % 1021,3 hPa 0,0 l/m 0,0 km/h (0 Bft) N 0 0 min 0,000 mm 0 W/m 2,2 C 3,4 C 0,0 km/h (0 Bft) 98 %
02.01.2022 04:00 3,1 C 3,1 C 3,4 C 92 % 1021,3 hPa 0,0 l/m 0,0 km/h (0 Bft) N 0 0 min 0,000 mm 0 W/m 1,9 C 3,1 C 0,0 km/h (0 Bft) 98 %
02.01.2022 04:10 2,9 C 2,9 C 3,1 C 92 % 1021,2 hPa 0,0 l/m 0,0 km/h (0 Bft) N 0 0 min 0,000 mm 0 W/m 1,7 C 2,9 C 0,0 km/h (0 Bft) 97 %
02.01.2022 04:20 3,3 C 2,9 C 3,3 C 92 % 1020,9 hPa 0,0 l/m 0,0 km/h (0 Bft) N 0 0 min 0,000 mm 0 W/m 2,1 C 3,3 C 0,0 km/h (0 Bft) 97 %
02.01.2022 04:30 3,4 C 3,3 C 3,5 C 92 % 1021,0 hPa 0,0 l/m 0,0 km/h (0 Bft) N 0 0 min 0,000 mm 0 W/m 2,2 C 3,4 C 0,0 km/h (0 Bft) 98 %
02.01.2022 04:40 3,7 C 3,4 C 3,7 C 92 % 1020,7 hPa 0,0 l/m 0,0 km/h (0 Bft) N 0 0 min 0,000 mm 0 W/m 2,5 C 3,7 C 0,0 km/h (0 Bft) 97 %
02.01.2022 04:50 4,0 C 3,7 C 4,0 C 92 % 1020,8 hPa 0,0 l/m 0,0 km/h (0 Bft) N 0 0 min 0,000 mm 0 W/m 2,8 C 4,0 C 0,0 km/h (0 Bft) 98 %
02.01.2022 05:00 3,4 C 3,4 C 4,0 C 92 % 1020,7 hPa 0,0 l/m 0,0 km/h (0 Bft) N 0 0 min 0,000 mm 0 W/m 2,2 C 3,4 C 0,0 km/h (0 Bft) 97 %
02.01.2022 05:10 3,4 C 3,3 C 3,5 C 92 % 1020,5 hPa 0,0 l/m 0,0 km/h (0 Bft) N 0 0 min 0,000 mm 0 W/m 2,2 C 3,4 C 0,0 km/h (0 Bft) 98 %
02.01.2022 05:20 3,3 C 3,3 C 3,4 C 92 % 1020,6 hPa 0,0 l/m 0,0 km/h (0 Bft) N 0 0 min 0,000 mm 0 W/m 2,1 C 3,3 C 0,0 km/h (0 Bft) 98 %
02.01.2022 05:30 3,0 C 3,0 C 3,3 C 92 % 1020,3 hPa 0,0 l/m 0,0 km/h (0 Bft) N 0 0 min 0,000 mm 0 W/m 1,8 C 3,0 C 0,0 km/h (0 Bft) 97 %
02.01.2022 05:40 3,4 C 3,0 C 3,4 C 92 % 1020,1 hPa 0,0 l/m 0,0 km/h (0 Bft) N 0 0 min 0,000 mm 0 W/m 2,2 C 3,4 C 0,0 km/h (0 Bft) 98 %
02.01.2022 05:50 3,5 C 3,4 C 3,6 C 92 % 1020,0 hPa 0,0 l/m 0,0 km/h (0 Bft) N 0 0 min 0,000 mm 0 W/m 2,3 C 3,5 C 0,0 km/h (0 Bft) 97 %
02.01.2022 06:00 3,6 C 3,4 C 3,6 C 92 % 1019,8 hPa 0,0 l/m 0,0 km/h (0 Bft) N 0 0 min 0,000 mm 0 W/m 2,4 C 3,6 C 0,0 km/h (0 Bft) 98 %
02.01.2022 06:10 3,4 C 3,4 C 3,6 C 92 % 1019,9 hPa 0,0 l/m 0,0 km/h (0 Bft) N 0 0 min 0,000 mm 0 W/m 2,2 C 3,4 C 0,0 km/h (0 Bft) 90 %
02.01.2022 06:20 3,1 C 3,1 C 3,4 C 92 % 1019,8 hPa 0,0 l/m 0,0 km/h (0 Bft) N 0 0 min 0,000 mm 0 W/m 1,9 C 3,1 C 0,0 km/h (0 Bft) 97 %
02.01.2022 06:30 3,0 C 2,9 C 3,1 C 92 % 1019,5 hPa 0,0 l/m 0,0 km/h (0 Bft) N 0 0 min 0,000 mm 0 W/m 1,8 C 3,0 C 0,0 km/h (0 Bft) 98 %
02.01.2022 06:40 2,9 C 2,9 C 3,0 C 92 % 1019,5 hPa 0,0 l/m 0,0 km/h (0 Bft) N 0 0 min 0,000 mm 0 W/m 1,7 C 2,9 C 0,0 km/h (0 Bft) 97 %
02.01.2022 06:50 2,8 C 2,8 C 2,9 C 92 % 1019,4 hPa 0,0 l/m 0,0 km/h (0 Bft) N 0 0 min 0,000 mm 0 W/m 1,6 C 2,8 C 0,0 km/h (0 Bft) 98 %
02.01.2022 07:00 2,5 C 2,5 C 2,8 C 92 % 1019,5 hPa 0,0 l/m 0,0 km/h (0 Bft) N 0 0 min 0,000 mm 0 W/m 1,3 C 2,5 C 0,0 km/h (0 Bft) 97 %
02.01.2022 07:10 2,3 C 2,3 C 2,5 C 92 % 1019,5 hPa 0,0 l/m 0,0 km/h (0 Bft) N 0 0 min 0,000 mm 0 W/m 1,1 C 2,3 C 0,0 km/h (0 Bft) 98 %
02.01.2022 07:20 2,8 C 2,3 C 2,8 C 92 % 1019,5 hPa 0,0 l/m 0,0 km/h (0 Bft) N 0 0 min 0,000 mm 0 W/m 1,6 C 2,8 C 0,0 km/h (0 Bft) 99 %
02.01.2022 07:30 3,0 C 2,8 C 3,0 C 92 % 1019,3 hPa 0,0 l/m 0,0 km/h (0 Bft) N 0 0 min 0,000 mm 0 W/m 1,8 C 3,0 C 0,0 km/h (0 Bft) 99 %
02.01.2022 07:40 3,3 C 3,0 C 3,3 C 92 % 1019,4 hPa 0,0 l/m 0,0 km/h (0 Bft) N 0 0 min 0,000 mm 0 W/m 2,1 C 3,3 C 0,0 km/h (0 Bft) 100 %
02.01.2022 07:50 3,6 C 3,3 C 3,6 C 92 % 1019,3 hPa 0,0 l/m 0,0 km/h (0 Bft) N 0 0 min 0,000 mm 0 W/m 2,4 C 3,6 C 0,0 km/h (0 Bft) 100 %
02.01.2022 08:00 3,7 C 3,6 C 3,7 C 92 % 1019,1 hPa 0,0 l/m 0,0 km/h (0 Bft) N 0 0 min 0,000 mm 0 W/m 2,5 C 3,7 C 0,0 km/h (0 Bft) 100 %
02.01.2022 08:10 3,5 C 3,5 C 3,7 C 92 % 1019,3 hPa 0,0 l/m 0,0 km/h (0 Bft) N 0 0 min 0,000 mm 0 W/m 2,3 C 3,5 C 0,0 km/h (0 Bft) 100 %
02.01.2022 08:20 3,2 C 3,2 C 3,5 C 92 % 1019,0 hPa 0,0 l/m 0,0 km/h (0 Bft) N 0 0 min 0,000 mm 0 W/m 2,0 C 3,2 C 0,0 km/h (0 Bft) 100 %
02.01.2022 08:30 3,3 C 3,2 C 3,3 C 92 % 1019,1 hPa 0,0 l/m 0,0 km/h (0 Bft) N 0 0 min 0,000 mm 5 W/m 2,1 C 3,3 C 0,0 km/h (0 Bft) 100 %
02.01.2022 08:40 3,4 C 3,3 C 3,4 C 92 % 1019,2 hPa 0,0 l/m 0,0 km/h (0 Bft) N 0 0 min 0,000 mm 11 W/m 2,2 C 3,4 C 0,0 km/h (0 Bft) 100 %
02.01.2022 08:50 3,4 C 3,4 C 3,4 C 92 % 1019,2 hPa 0,0 l/m 0,0 km/h (0 Bft) N 0 0 min 0,000 mm 16 W/m 2,2 C 3,4 C 0,0 km/h (0 Bft) 99 %
02.01.2022 09:00 3,4 C 3,4 C 3,4 C 92 % 1019,0 hPa 0,0 l/m 0,0 km/h (0 Bft) N 0 0 min 0,000 mm 19 W/m 2,2 C 3,4 C 0,0 km/h (0 Bft) 100 %
02.01.2022 09:10 3,4 C 3,3 C 3,4 C 92 % 1019,2 hPa 0,0 l/m 0,0 km/h (0 Bft) N 0 0 min 0,000 mm 25 W/m 2,2 C 3,4 C 0,0 km/h (0 Bft) 100 %
02.01.2022 09:20 3,3 C 3,3 C 3,4 C 92 % 1019,2 hPa 0,0 l/m 0,0 km/h (0 Bft) N 0 0 min 0,000 mm 37 W/m 2,1 C 3,3 C 0,0 km/h (0 Bft) 100 %
02.01.2022 09:30 3,9 C 3,3 C 3,9 C 92 % 1019,1 hPa 0,0 l/m 0,0 km/h (0 Bft) N 0 0 min 0,000 mm 56 W/m 2,7 C 3,9 C 0,0 km/h (0 Bft) 100 %
02.01.2022 09:40 4,2 C 3,9 C 4,2 C 92 % 1019,0 hPa 0,0 l/m 0,0 km/h (0 Bft) N 0 0 min 0,000 mm 77 W/m 3,0 C 4,2 C 0,0 km/h (0 Bft) 88 %
02.01.2022 09:50 4,8 C 4,2 C 4,8 C 92 % 1019,1 hPa 0,0 l/m 0,0 km/h (0 Bft) N 0 0 min 0,000 mm 105 W/m 3,6 C 4,8 C 0,0 km/h (0 Bft) 100 %
02.01.2022 10:00 4,8 C 4,7 C 4,9 C 92 % 1019,0 hPa 0,0 l/m 0,0 km/h (0 Bft) W 270 0 min 0,025 mm 105 W/m 3,6 C 4,8 C 3,2 km/h (1 Bft) 100 %
02.01.2022 10:10 5,1 C 4,8 C 5,1 C 92 % 1019,0 hPa 0,0 l/m 0,0 km/h (0 Bft) W 270 0 min 0,000 mm 86 W/m 3,9 C 5,1 C 3,2 km/h (1 Bft) 100 %
02.01.2022 10:20 5,2 C 5,1 C 5,2 C 92 % 1019,1 hPa 0,0 l/m 0,0 km/h (0 Bft) N 0 0 min 0,000 mm 116 W/m 4,0 C 5,2 C 0,0 km/h (0 Bft) 100 %
02.01.2022 10:30 5,2 C 5,2 C 5,3 C 92 % 1019,1 hPa 0,0 l/m 0,0 km/h (0 Bft) N 0 0 min 0,000 mm 127 W/m 4,0 C 5,2 C 0,0 km/h (0 Bft) 100 %
02.01.2022 10:40 5,1 C 5,1 C 5,2 C 92 % 1019,2 hPa 0,0 l/m 0,0 km/h (0 Bft) N 0 0 min 0,000 mm 77 W/m 3,9 C 5,1 C 0,0 km/h (0 Bft) 100 %
02.01.2022 10:50 5,1 C 5,1 C 5,2 C 92 % 1019,2 hPa 0,0 l/m 0,0 km/h (0 Bft) N 0 0 min 0,000 mm 67 W/m 3,9 C 5,1 C 0,0 km/h (0 Bft) 100 %
02.01.2022 11:00 5,2 C 5,1 C 5,2 C 92 % 1019,2 hPa 0,0 l/m 0,0 km/h (0 Bft) W-SW 247 0 min 0,025 mm 107 W/m 4,0 C 5,2 C 1,6 km/h (1 Bft) 99 %
02.01.2022 11:10 5,1 C 5,1 C 5,2 C 92 % 1018,9 hPa 0,0 l/m 0,0 km/h (0 Bft) N 0 0 min 0,000 mm 86 W/m 3,9 C 5,1 C 0,0 km/h (0 Bft) 100 %
02.01.2022 11:20 5,1 C 5,1 C 5,1 C 92 % 1018,8 hPa 0,0 l/m 0,0 km/h (0 Bft) N 0 0 min 0,000 mm 65 W/m 3,9 C 5,1 C 0,0 km/h (0 Bft) 100 %
02.01.2022 11:30 5,0 C 5,0 C 5,1 C 92 % 1018,9 hPa 0,0 l/m 3,2 km/h (1 Bft) S-SW 202 0 min 0,000 mm 54 W/m 3,8 C 5,0 C 6,4 km/h (2 Bft) 100 %
02.01.2022 11:40 4,9 C 4,9 C 5,1 C 92 % 1018,7 hPa 0,0 l/m 1,6 km/h (1 Bft) S 180 0 min 0,000 mm 49 W/m 3,7 C 4,9 C 6,4 km/h (2 Bft) 100 %
02.01.2022 11:50 5,0 C 4,9 C 5,0 C 92 % 1018,1 hPa 0,0 l/m 0,0 km/h (0 Bft) N 0 0 min 0,000 mm 58 W/m 3,8 C 5,0 C 0,0 km/h (0 Bft) 89 %
02.01.2022 12:00 5,2 C 5,0 C 5,2 C 92 % 1018,6 hPa 0,0 l/m 1,6 km/h (1 Bft) S-SW 202 0 min 0,025 mm 90 W/m 4,0 C 5,2 C 14,5 km/h (3 Bft) 100 %
02.01.2022 12:10 5,0 C 5,0 C 5,2 C 92 % 1018,1 hPa 0,0 l/m 3,2 km/h (1 Bft) S-SO 157 0 min 0,000 mm 72 W/m 3,8 C 5,0 C 16,1 km/h (3 Bft) 100 %
02.01.2022 12:20 5,1 C 5,0 C 5,1 C 92 % 1018,2 hPa 0,0 l/m 1,6 km/h (1 Bft) S-SO 157 0 min 0,000 mm 74 W/m 3,9 C 5,1 C 6,4 km/h (2 Bft) 100 %
02.01.2022 12:30 5,2 C 5,1 C 5,2 C 92 % 1017,8 hPa 0,0 l/m 0,0 km/h (0 Bft) N 0 0 min 0,000 mm 60 W/m 4,0 C 5,2 C 0,0 km/h (0 Bft) 100 %
02.01.2022 12:40 5,5 C 5,2 C 5,5 C 92 % 1017,6 hPa 0,0 l/m 1,6 km/h (1 Bft) S 180 0 min 0,000 mm 77 W/m 4,3 C 5,5 C 6,4 km/h (2 Bft) 100 %
02.01.2022 12:50 5,8 C 5,5 C 5,8 C 92 % 1017,6 hPa 0,0 l/m 0,0 km/h (0 Bft) S 180 0 min 0,000 mm 67 W/m 4,6 C 5,8 C 4,8 km/h (1 Bft) 100 %
02.01.2022 13:00 5,9 C 5,7 C 5,9 C 92 % 1017,6 hPa 0,0 l/m 0,0 km/h (0 Bft) S 180 0 min 0,025 mm 63 W/m 4,7 C 5,9 C 3,2 km/h (1 Bft) 100 %
02.01.2022 13:10 6,1 C 5,9 C 6,1 C 92 % 1017,6 hPa 0,0 l/m 0,0 km/h (0 Bft) N 0 0 min 0,000 mm 93 W/m 4,9 C 6,1 C 0,0 km/h (0 Bft) 100 %
02.01.2022 13:20 6,3 C 6,1 C 6,3 C 92 % 1017,8 hPa 0,0 l/m 1,6 km/h (1 Bft) S-SW 202 0 min 0,000 mm 102 W/m 5,1 C 6,3 C 8,0 km/h (2 Bft) 100 %
02.01.2022 13:30 6,6 C 6,3 C 6,6 C 93 % 1017,5 hPa 0,0 l/m 0,0 km/h (0 Bft) S-SW 202 0 min 0,000 mm 88 W/m 5,6 C 6,6 C 8,0 km/h (2 Bft) 100 %
02.01.2022 13:40 6,7 C 6,6 C 6,7 C 93 % 1017,4 hPa 0,0 l/m 0,0 km/h (0 Bft) S-SW 202 0 min 0,000 mm 37 W/m 5,6 C 6,7 C 8,0 km/h (2 Bft) 100 %
02.01.2022 13:50 6,8 C 6,7 C 6,8 C 93 % 1017,3 hPa 0,0 l/m 0,0 km/h (0 Bft) S-SW 202 0 min 0,000 mm 26 W/m 5,7 C 6,8 C 6,4 km/h (2 Bft) 100 %
02.01.2022 14:10 6,9 C 6,7 C 6,9 C 92 % 1016,7 hPa 0,0 l/m 1,0 km/h (0 Bft) S-SW 193 0 min 0,027 mm 54 W/m 5,7 C 6,9 C 8,0 km/h (2 Bft) 98 %
02.01.2022 14:20 7,2 C 6,9 C 7,2 C 92 % 1016,5 hPa 0,0 l/m 3,1 km/h (1 Bft) S-SO 166 0 min 0,000 mm 93 W/m 6,0 C 7,2 C 8,0 km/h (2 Bft) 97 %
02.01.2022 14:30 7,3 C 7,2 C 7,3 C 91 % 1016,6 hPa 0,0 l/m 0,4 km/h (0 Bft) S 169 0 min 0,000 mm 49 W/m 5,9 C 7,3 C 4,8 km/h (1 Bft) 98 %
02.01.2022 14:40 7,3 C 7,3 C 7,3 C 91 % 1016,7 hPa 0,0 l/m 0,0 km/h (0 Bft) S 169 0 min 0,000 mm 42 W/m 5,9 C 7,3 C 0,0 km/h (0 Bft) 97 %
02.01.2022 14:50 7,5 C 7,3 C 7,5 C 90 % 1016,7 hPa 0,0 l/m 1,6 km/h (1 Bft) SW 217 0 min 0,000 mm 77 W/m 6,0 C 7,5 C 8,0 km/h (2 Bft) 97 %
02.01.2022 15:00 8,1 C 7,5 C 8,1 C 87 % 1016,8 hPa 0,0 l/m 4,5 km/h (1 Bft) S-SW 196 0 min 0,025 mm 42 W/m 6,1 C 8,1 C 16,1 km/h (3 Bft) 97 %
02.01.2022 15:10 8,6 C 8,1 C 8,6 C 85 % 1016,7 hPa 0,0 l/m 6,8 km/h (2 Bft) S-SO 161 0 min 0,000 mm 70 W/m 6,2 C 8,3 C 12,9 km/h (3 Bft) 97 %
02.01.2022 15:20 8,8 C 8,6 C 8,8 C 84 % 1016,9 hPa 0,0 l/m 4,9 km/h (1 Bft) S 182 0 min 0,000 mm 40 W/m 6,2 C 8,8 C 14,5 km/h (3 Bft) 97 %
02.01.2022 15:30 8,8 C 8,8 C 8,8 C 84 % 1016,9 hPa 0,0 l/m 3,2 km/h (1 Bft) S 175 0 min 0,000 mm 26 W/m 6,2 C 8,8 C 9,7 km/h (2 Bft) 97 %
02.01.2022 15:40 8,9 C 8,8 C 8,9 C 83 % 1016,9 hPa 0,0 l/m 5,2 km/h (1 Bft) S-SO 153 0 min 0,000 mm 19 W/m 6,2 C 8,9 C 11,3 km/h (2 Bft) 97 %
02.01.2022 15:50 8,9 C 8,9 C 8,9 C 84 % 1017,2 hPa 0,0 l/m 1,8 km/h (1 Bft) S 170 0 min 0,000 mm 18 W/m 6,3 C 8,9 C 8,0 km/h (2 Bft) 98 %
02.01.2022 16:00 8,9 C 8,9 C 8,9 C 84 % 1017,3 hPa 0,0 l/m 0,5 km/h (0 Bft) S 178 0 min 0,026 mm 19 W/m 6,3 C 8,9 C 8,0 km/h (2 Bft) 97 %
02.01.2022 16:10 8,7 C 8,7 C 8,9 C 85 % 1017,3 hPa 0,0 l/m 1,0 km/h (0 Bft) S-SO 163 0 min 0,000 mm 14 W/m 6,3 C 8,7 C 6,4 km/h (2 Bft) 98 %
02.01.2022 16:20 8,6 C 8,6 C 8,7 C 85 % 1017,2 hPa 0,0 l/m 3,3 km/h (1 Bft) S 176 0 min 0,000 mm 11 W/m 6,2 C 8,6 C 9,7 km/h (2 Bft) 97 %
02.01.2022 16:30 8,5 C 8,4 C 8,6 C 85 % 1017,3 hPa 0,0 l/m 3,2 km/h (1 Bft) S 182 0 min 0,000 mm 0 W/m 6,1 C 8,5 C 11,3 km/h (2 Bft) 97 %
02.01.2022 16:40 8,2 C 8,2 C 8,5 C 86 % 1017,4 hPa 0,0 l/m 2,0 km/h (1 Bft) S 169 0 min 0,000 mm 0 W/m 6,0 C 8,2 C 9,7 km/h (2 Bft) 97 %
02.01.2022 16:50 8,1 C 8,1 C 8,2 C 87 % 1017,4 hPa 0,0 l/m 1,6 km/h (1 Bft) S 171 0 min 0,000 mm 0 W/m 6,1 C 8,1 C 9,7 km/h (2 Bft) 97 %
02.01.2022 17:00 8,2 C 8,1 C 8,2 C 86 % 1017,5 hPa 0,0 l/m 1,0 km/h (0 Bft) W 267 0 min 0,000 mm 0 W/m 6,0 C 8,2 C 8,0 km/h (2 Bft) 97 %
02.01.2022 17:10 8,5 C 8,2 C 8,5 C 86 % 1017,7 hPa 0,0 l/m 3,3 km/h (1 Bft) W-NW 296 0 min 0,000 mm 0 W/m 6,3 C 8,5 C 12,9 km/h (3 Bft) 97 %
02.01.2022 17:20 9,1 C 8,5 C 9,1 C 85 % 1017,7 hPa 0,0 l/m 8,5 km/h (2 Bft) W-NW 290 0 min 0,000 mm 0 W/m 6,7 C 7,6 C 20,9 km/h (4 Bft) 96 %
02.01.2022 17:30 9,5 C 9,1 C 9,5 C 84 % 1017,9 hPa 0,0 l/m 8,4 km/h (2 Bft) W 260 0 min 0,000 mm 0 W/m 6,9 C 8,1 C 22,5 km/h (4 Bft) 98 %
02.01.2022 17:40 10,0 C 9,5 C 10,0 C 83 % 1017,8 hPa 0,0 l/m 12,2 km/h (2 Bft) W-SW 250 0 min 0,000 mm 0 W/m 7,2 C 6,4 C 30,6 km/h (5 Bft) 97 %
02.01.2022 17:50 10,3 C 10,0 C 10,3 C 82 % 1017,8 hPa 0,0 l/m 10,6 km/h (2 Bft) W-SW 253 0 min 0,000 mm 0 W/m 7,4 C 7,6 C 27,4 km/h (4 Bft) 97 %
02.01.2022 18:00 10,3 C 10,3 C 10,3 C 82 % 1017,9 hPa 0,0 l/m 10,6 km/h (2 Bft) W-SW 256 0 min 0,000 mm 0 W/m 7,4 C 7,6 C 35,4 km/h (5 Bft) 98 %
02.01.2022 18:10 10,4 C 10,3 C 10,4 C 81 % 1017,7 hPa 0,0 l/m 11,9 km/h (2 Bft) S-SW 207 0 min 0,025 mm 0 W/m 7,3 C 7,0 C 27,4 km/h (4 Bft) 96 %
02.01.2022 18:20 10,5 C 10,4 C 10,5 C 82 % 1017,9 hPa 0,0 l/m 11,7 km/h (2 Bft) W-SW 257 0 min 0,000 mm 0 W/m 7,6 C 7,2 C 29,0 km/h (5 Bft) 97 %
02.01.2022 18:30 10,5 C 10,4 C 10,5 C 82 % 1017,9 hPa 0,0 l/m 11,8 km/h (2 Bft) W 271 0 min 0,000 mm 0 W/m 7,6 C 7,2 C 29,0 km/h (5 Bft) 97 %
02.01.2022 18:40 10,6 C 10,5 C 10,6 C 81 % 1017,7 hPa 0,0 l/m 15,7 km/h (3 Bft) W-SW 253 0 min 0,000 mm 0 W/m 7,5 C 5,6 C 37,0 km/h (5 Bft) 97 %
02.01.2022 18:50 10,7 C 10,6 C 10,7 C 81 % 1017,7 hPa 0,0 l/m 13,5 km/h (3 Bft) S-SW 207 0 min 0,000 mm 0 W/m 7,6 C 6,6 C 33,8 km/h (5 Bft) 98 %
02.01.2022 19:00 10,7 C 10,7 C 10,7 C 81 % 1017,7 hPa 0,0 l/m 8,9 km/h (2 Bft) SW 235 0 min 0,000 mm 0 W/m 7,6 C 9,0 C 33,8 km/h (5 Bft) 97 %
02.01.2022 19:10 10,8 C 10,7 C 10,8 C 81 % 1017,7 hPa 0,0 l/m 11,2 km/h (2 Bft) W-SW 254 0 min 0,025 mm 0 W/m 7,7 C 7,8 C 33,8 km/h (5 Bft) 97 %
02.01.2022 19:20 10,9 C 10,8 C 10,9 C 81 % 1017,5 hPa 0,0 l/m 11,8 km/h (2 Bft) SW 220 0 min 0,001 mm 0 W/m 7,8 C 7,6 C 40,2 km/h (6 Bft) 97 %
02.01.2022 19:30 10,9 C 10,9 C 10,9 C 80 % 1017,3 hPa 0,0 l/m 11,3 km/h (2 Bft) W-SW 240 0 min 0,000 mm 0 W/m 7,6 C 7,9 C 30,6 km/h (5 Bft) 97 %
02.01.2022 19:40 10,8 C 10,8 C 10,9 C 81 % 1017,3 hPa 0,0 l/m 8,0 km/h (2 Bft) SW 222 0 min 0,000 mm 0 W/m 7,7 C 9,7 C 25,7 km/h (4 Bft) 98 %
02.01.2022 19:50 10,8 C 10,8 C 10,8 C 81 % 1017,3 hPa 0,0 l/m 9,0 km/h (2 Bft) W 261 0 min 0,000 mm 0 W/m 7,7 C 9,1 C 25,7 km/h (4 Bft) 97 %
02.01.2022 20:00 10,6 C 10,6 C 10,8 C 81 % 1017,3 hPa 0,0 l/m 8,7 km/h (2 Bft) W-SW 257 0 min 0,000 mm 0 W/m 7,5 C 9,0 C 29,0 km/h (5 Bft) 98 %
02.01.2022 20:10 10,6 C 10,6 C 10,7 C 81 % 1017,3 hPa 0,0 l/m 10,1 km/h (2 Bft) SW 222 0 min 0,025 mm 0 W/m 7,5 C 8,2 C 27,4 km/h (4 Bft) 97 %
02.01.2022 20:20 10,8 C 10,6 C 10,8 C 80 % 1017,3 hPa 0,0 l/m 15,6 km/h (3 Bft) W-SW 248 0 min 0,000 mm 0 W/m 7,5 C 5,9 C 35,4 km/h (5 Bft) 97 %
02.01.2022 20:30 10,8 C 10,8 C 10,8 C 81 % 1017,3 hPa 0,0 l/m 14,1 km/h (3 Bft) W-NW 296 0 min 0,000 mm 0 W/m 7,7 C 6,5 C 32,2 km/h (5 Bft) 97 %
02.01.2022 20:40 10,8 C 10,8 C 10,9 C 80 % 1017,3 hPa 0,0 l/m 12,0 km/h (2 Bft) W 263 0 min 0,000 mm 0 W/m 7,5 C 7,4 C 33,8 km/h (5 Bft) 97 %
02.01.2022 20:50 10,9 C 10,8 C 10,9 C 80 % 1017,1 hPa 0,0 l/m 12,0 km/h (2 Bft) W-SW 246 0 min 0,000 mm 0 W/m 7,6 C 7,6 C 32,2 km/h (5 Bft) 89 %
02.01.2022 21:00 10,9 C 10,9 C 10,9 C 80 % 1017,2 hPa 0,0 l/m 8,5 km/h (2 Bft) S 186 0 min 0,000 mm 0 W/m 7,6 C 9,5 C 25,7 km/h (4 Bft) 97 %
02.01.2022 21:10 10,9 C 10,9 C 10,9 C 80 % 1017,1 hPa 0,0 l/m 8,0 km/h (2 Bft) W-SW 247 0 min 0,000 mm 0 W/m 7,6 C 9,8 C 29,0 km/h (5 Bft) 100 %
02.01.2022 21:20 10,9 C 10,9 C 10,9 C 79 % 1016,8 hPa 0,0 l/m 9,7 km/h (2 Bft) W-SW 247 0 min 0,000 mm 0 W/m 7,4 C 8,8 C 30,6 km/h (5 Bft) 100 %
02.01.2022 21:30 11,0 C 10,9 C 11,0 C 79 % 1016,9 hPa 0,0 l/m 12,9 km/h (3 Bft) W-SW 247 0 min 0,000 mm 0 W/m 7,5 C 7,2 C 37,0 km/h (5 Bft) 100 %
02.01.2022 21:40 11,1 C 11,0 C 11,1 C 78 % 1016,8 hPa 0,0 l/m 14,5 km/h (3 Bft) W-SW 247 0 min 0,000 mm 0 W/m 7,4 C 6,7 C 37,0 km/h (5 Bft) 100 %
02.01.2022 21:50 11,2 C 11,1 C 11,2 C 78 % 1016,8 hPa 0,0 l/m 14,5 km/h (3 Bft) SW 225 0 min 0,000 mm 0 W/m 7,5 C 6,8 C 33,8 km/h (5 Bft) 100 %
02.01.2022 22:00 11,1 C 11,1 C 11,2 C 78 % 1016,6 hPa 0,0 l/m 12,9 km/h (3 Bft) SW 225 0 min 0,025 mm 0 W/m 7,4 C 7,4 C 30,6 km/h (5 Bft) 100 %
02.01.2022 22:10 11,0 C 11,0 C 11,1 C 79 % 1016,6 hPa 0,0 l/m 11,3 km/h (2 Bft) SW 225 0 min 0,000 mm 0 W/m 7,5 C 8,0 C 27,4 km/h (4 Bft) 100 %
02.01.2022 22:20 11,1 C 11,0 C 11,1 C 79 % 1016,4 hPa 0,0 l/m 12,9 km/h (3 Bft) SW 225 0 min 0,000 mm 0 W/m 7,6 C 7,4 C 29,0 km/h (5 Bft) 99 %
02.01.2022 22:30 10,9 C 10,9 C 11,1 C 78 % 1016,3 hPa 0,0 l/m 12,9 km/h (3 Bft) SW 225 0 min 0,000 mm 0 W/m 7,2 C 7,1 C 32,2 km/h (5 Bft) 100 %
02.01.2022 22:40 11,1 C 10,9 C 11,1 C 78 % 1016,4 hPa 0,0 l/m 14,5 km/h (3 Bft) SW 225 0 min 0,000 mm 0 W/m 7,4 C 6,7 C 40,2 km/h (6 Bft) 90 %
02.01.2022 22:50 11,2 C 11,1 C 11,2 C 77 % 1016,4 hPa 0,0 l/m 9,7 km/h (2 Bft) SW 225 0 min 0,000 mm 0 W/m 7,3 C 9,1 C 32,2 km/h (5 Bft) 100 %
02.01.2022 23:00 11,3 C 11,2 C 11,3 C 77 % 1016,2 hPa 0,0 l/m 16,1 km/h (3 Bft) SW 225 0 min 0,025 mm 0 W/m 7,4 C 6,3 C 40,2 km/h (6 Bft) 100 %
02.01.2022 23:10 11,4 C 11,3 C 11,4 C 77 % 1015,9 hPa 0,0 l/m 12,9 km/h (3 Bft) W-SW 247 0 min 0,000 mm 0 W/m 7,5 C 7,7 C 46,7 km/h (6 Bft) 99 %
02.01.2022 23:20 11,4 C 11,4 C 11,4 C 77 % 1016,0 hPa 0,0 l/m 16,1 km/h (3 Bft) SW 225 0 min 0,000 mm 0 W/m 7,5 C 6,4 C 48,3 km/h (6 Bft) 100 %
02.01.2022 23:30 11,5 C 11,4 C 11,5 C 76 % 1015,9 hPa 0,0 l/m 17,7 km/h (3 Bft) SW 225 0 min 0,000 mm 0 W/m 7,4 C 6,0 C 46,7 km/h (6 Bft) 100 %
02.01.2022 23:40 11,6 C 11,5 C 11,6 C 76 % 1015,8 hPa 0,0 l/m 17,7 km/h (3 Bft) W-SW 247 0 min 0,000 mm 0 W/m 7,5 C 6,1 C 45,1 km/h (6 Bft) 100 %
02.01.2022 23:50 11,6 C 11,6 C 11,6 C 76 % 1015,7 hPa 0,0 l/m 17,7 km/h (3 Bft) W-SW 247 0 min 0,000 mm 0 W/m 7,5 C 6,1 C 38,6 km/h (5 Bft) 100 %
_ Min-Zeit 07:10 07:10 07:10 23:30 23:50 - 00:00 - - - - - 07:10 07:10 00:00 09:40
Minimum _ 2,3 C 2,3 C 2,5 C 76 % 1015,7 hPa - 0,0 km/h (0 Bft) - - - - - 1,1 C 2,3 C 0,0 km/h (0 Bft) 88 %
_ Max-Zeit 23:40 23:50 23:40 13:30 00:00 00:00 23:30 - - 00:00 14:10 10:30 19:20 21:10 23:20 00:00
Maximum _ 11,6 C 11,6 C 11,6 C 93 % 1022,9 hPa 0,0 l/m 17,7 km/h
SW (3 Bft)
- - 0 min 0,027 mm 127 W/m 7,8 C 9,8 C 48,3 km/h
W-SW (6 Bft)
100 %
Durchschnitt _ 6,5 C 6,4 C 6,5 C 88 % 1018,8 hPa #0,0 l/m 3,9 km/h (1 Bft) W-SW - #0 min. #0,304 mm 59 W/m 4,6 C 5,6 C 11,2 km/h (2 Bft) 98 %
PRIVATE WETTERSTATION BILLIGHEIM-ALLFELD - www.neckar-odenwald-wetter.de - Holger Sonntag